Torna al catalogo

STARLINK-37280

AttivoComunicazioniVLEO
NORAD 68511·PAYLOAD·🇺🇸 United States

Lanciato Mar 30, 2026 da Cape Canaveral Space Force Station

Loading…

Prossimi Passaggi (prossime 24 ore)

TLE

AggiornatoSource: CelesTrak SupGP

Epoca: Sep 14, 2026, 21:20 UTC

1 68511C 26068D   26257.88937500 -.00010464  00000+0 -30930-3 0  2576
2 68511  53.1586 319.9451 0001126  87.9868  89.8082 15.34381924    15

Traccia STARLINK-37280 in tempo reale con AllMySat

Download on the App Store